Regional Weather Roundup
Issued by NWS Kansas City/Pleasant Hill, MO

Home | Current Version | Previous Version | Text Only | Print | Product List | Glossary On
Versions: 1 2 3 4 5 6 7 8 9 10 11 12 13 14 15 16 17 18 19 20 21 22 23 24 25 26 27 28
000
ASUS43 KEAX 040010
RWREAX

WEATHER ROUNDUP FOR EASTERN KANSAS AND NORTHWEST MISSOURI
NATIONAL WEATHER SERVICE KANSAS CITY/PLEASANT HILL MO
700 PM CDT TUE MAY 03 2016

KSZ040-057-103>105-MOZ028-029-037-043-040100-
...KANSAS CITY METROPOLITAN AREA...

CITY           SKY/WX    TMP DP  RH WIND       PRES   REMARKS
K.C. INTL      MOSUNNY   67  42  40 NW8       29.95F
6HR MIN TEMP:  64; 6HR MAX TEMP:  70;

K.C. DOWNTOWN  SUNNY     69  40  34 NW8       29.93F
6HR MIN TEMP:  66; 6HR MAX TEMP:  71;

LEES SUMMIT    MOSUNNY   68  39  34 NW6       29.96F
6HR MIN TEMP:  63; 6HR MAX TEMP:  69;

OLATHE - IXD   MOSUNNY   67  44  43 W6        29.96F
6HR MIN TEMP:  63; 6HR MAX TEMP:  69;

OLATHE - OJC   MOSUNNY   66  41  40 W8        29.96F
6HR MIN TEMP:  63; 6HR MAX TEMP:  68;

LAWRENCE       MOSUNNY   69  44  40 W7        29.95F

$$

MOZ001>008-011>017-020>025-030>033-038>040-044>046-053-054-040100-
...NORTHERN AND CENTRAL MISSOURI...

CITY           SKY/WX    TMP DP  RH WIND       PRES   REMARKS
ST. JOSEPH     MOSUNNY   69  42  37 W9        29.94F
6HR MIN TEMP:  65; 6HR MAX TEMP:  71;

MOSBY          CLEAR     68  37  32 W6        29.94F
WARRENSBURG    MOSUNNY   68  37  32 W3        29.95F
WHITEMAN AFB   MOSUNNY   66  41  39 W5        29.94F
6HR MIN TEMP:  62; 6HR MAX TEMP:  69;

CLINTON        MOSUNNY   66  43  42 W6        29.97F
SEDALIA        SUNNY     66  41  40 W10       29.96F
6HR MIN TEMP:  64; 6HR MAX TEMP:  68;

WARSAW         NOT AVBL
CHILLICOTHE      N/A     67  42  40 NW6       29.93F
6HR MIN TEMP:  66; 6HR MAX TEMP:  70;

KIRKSVILLE     SUNNY     65  40  39 W13       29.91F
6HR MIN TEMP:  63; 6HR MAX TEMP:  69;


$$

MOZ041-047>049-056>058-063>065-088>090-097-040100-
...EASTERN AND SOUTHERN MISSOURI...

CITY           SKY/WX    TMP DP  RH WIND       PRES   REMARKS
ST. LOUIS INTL PTCLDY    64  42  44 W9        29.94F
6HR MIN TEMP:  62; 6HR MAX TEMP:  66;

SPIRIT OF STL  PTCLDY    62  46  55 W6        29.94S
COLUMBIA       MOSUNNY   63  41  44 W7        29.94F
JEFFERSON CITY SUNNY     65  39  38 W7        29.94F
ROLLA          SUNNY     62  41  46 NW6       29.95S
OSAGE BEACH    SUNNY     64  36  34 W7        29.96F
SPRINGFIELD    SUNNY     64  38  38 NW7       29.99S
BRANSON        MOSUNNY   63  39  42 NW7       30.01F
JOPLIN         SUNNY     66  44  45 NW7       30.00F
WEST PLAINS    MOSUNNY   63  38  39 NW8       29.98F

$$

IAZ060-094-KSZ022-034>040-054-083-096-NEZ052-066-093-040100-
...KANSAS...SOUTHEAST NEBRASKA AND IOWA...

CITY           SKY/WX    TMP DP  RH WIND       PRES   REMARKS
TOPEKA         MOSUNNY   69  42  37 W8        29.95F
6HR MIN TEMP:  66; 6HR MAX TEMP:  72;

MANHATTAN      MOSUNNY   72  41  32 VRB3      29.96S
EMPORIA        SUNNY     69  43  38 W9        29.96F
CHANUTE        PTSUNNY   69  45  41 SW7       29.98F
WICHITA        PTSUNNY   70  45  40 S6        29.98F
OMAHA          PTSUNNY   71  42  35 W13       29.89F
LINCOLN        SUNNY     71  40  32 W10       29.94F
FALLS CITY     MOSUNNY   68  42  38 W12       29.93F
LAMONI         MOSUNNY   64  45  49 W12       29.90F
DES MOINES     PTSUNNY   67  42  40 W12       29.85F

$$





USA.gov is the U.S. government's official web portal to all federal, state and local government web resources and services.